Regional Weather Roundup
Issued by NWS

Home | Current Version | Previous Version | Text Only | Print | Product List | Glossary Off
Versions: 1 2 3 4 5 6 7 8 9 10 11 12 13 14 15 16 17 18 19 20 21 22 23 24 25 26 27 28 29 30 31 32 33 34 35 36 37 38 39 40 41 42 43 44 45 46 47 48 49 50

859
ASUS44 KJAN 300110
RWRMS

MISSISSIPPI HOURLY WEATHER ROUNDUP
NATIONAL WEATHER SERVICE JACKSON MS
800 PM CDT WED OCT 29 2014

NOTE: "FAIR: INDICATES FEW OR NO CLOUDS BELOW 12,000 FEET WITH NO
SIGNIFICANT WEATHER AND/OR OBSTRUCTIONS TO VISIBILITY.

MSZ001>002-007>008-010>013-018>021-025>028-034>036-300200-
NORTHWEST MISSISSIPPI

CITY           SKY/WX    TMP DP  RH WIND       PRES   REMARKS
CLARKSDALE     FAIR      57  52  82 CALM      30.16R
CLEVELAND      FAIR      57  50  77 N6        30.14S
GREENWOOD      CLEAR     52  48  86 CALM      30.14R
GREENVILLE     CLEAR     56  48  74 N3        30.14S
GRENADA        FAIR      50  48  93 MISG      30.14S
OLIVE BRANCH   CLEAR     55  48  76 CALM      30.15R
OXFORD         FAIR      48  46  93 CALM      30.16S
TUNICA         CLEAR     59  46  63 CALM      30.15S
$$

MSZ003>006-009-014>017-022>024-029>033-037>039-300200-
NORTHEAST MISSISSIPPI

CITY           SKY/WX    TMP DP  RH WIND       PRES   REMARKS
COLUMBUS AFB   CLEAR     50  46  86 CALM      30.13R
CORINTH        FAIR      50  46  87 CALM      30.13S
GOLDN TRIANGLE CLEAR     59  45  58 CALM      30.12R
STARKVILLE     FAIR      50  46  87 CALM      30.12F
TUPELO         CLEAR     55  43  63 CALM      30.13R
$$

MSZ040-058-300200-
CENTRAL MISSISSIPPI

CITY           SKY/WX    TMP DP  RH WIND       PRES   REMARKS
JACKSON INTL   CLEAR     61  48  62 N3        30.12R
JACKSON HAWKNS CLEAR     62  45  53 N3        30.13R
MERIDIAN KEY   CLEAR     56  49  77 NW3       30.11R
MERIDIAN NAS   CLEAR     57  52  83 N5        30.11R
RAYMOND        FAIR      55  50  82 CALM      30.13R
VICKSBURG      CLEAR     59  46  62 N5        30.13R
$$

MSZ059>079-300200-
SOUTH MISSISSIPPI

CITY           SKY/WX    TMP DP  RH WIND       PRES   REMARKS
BROOKHAVEN     FAIR      61  48  63 CALM      30.13R
COLUMBIA         N/A     64  55  72 MISG      30.08R
HATTIESBURG    PTCLDY    68  60  75 N8        30.09R
MCCOMB         CLEAR     67  49  52 N8        30.09R
NATCHEZ        CLEAR     59  46  63 N5        30.12R
PINE BELT      CLEAR     63  52  67 N8        30.10S
$$

MSZ080>082-300200-
COASTAL MISSISSIPPI

CITY           SKY/WX    TMP DP  RH WIND       PRES   REMARKS
BAY ST LOUIS   MOCLDY    73  63  68 N5        30.04R
BILOXI         PTCLDY    71  68  91 NE8       30.03R
PASCAGOULA     MOCLDY    71  65  81 N8        30.03R
GULFPORT       PTCLDY    73  66  78 N8        30.03R
$$



USA.gov is the U.S. government's official web portal to all federal, state and local government web resources and services.